EW2270 Weather Reports


time (UTC)temp
F
wind
direction
speed
knots
gust
knots
rain 1hr
in
rain 24hr
in
rain mn
in
humidity
%
barometer
mb
20260503200050 78 283 0.9 4.3 0.00 0.00 0.00 39 1010.9
20260503194543 77 271 2.6 4.3 0.00 0.00 0.00 37 1011.0
20260503193044 76 292 1.7 4.3 0.00 0.00 0.00 38 1011.2
20260503191539 75 221 0.9 4.3 0.00 0.00 0.00 40 1011.5
20260503190044 75 302 1.7 5.2 0.00 0.00 0.00 40 1011.7
20260503184535 74 18 0.0 4.3 0.00 0.00 0.00 40 1011.9
20260503183036 73 21 1.7 5.2 0.00 0.00 0.00 41 1012.0
20260503181531 73 331 1.7 5.2 0.00 0.00 0.00 46 1012.1
20260503180031 72 213 1.7 3.5 0.00 0.00 0.00 42 1012.3
20260503174532 71 360 0.9 3.5 0.00 0.00 0.00 43 1012.3
20260503173028 71 6 0.0 4.3 0.00 0.00 0.00 47 1012.4
20260503171525 71 105 0.9 2.6 0.00 0.00 0.00 45 1012.4
20260503150109 57 158 0.0 0.9 0.00 0.00 0.00 71 1012.6
20260503081513 55 224 1.7 3.5 0.00 0.00 0.00 79 1011.5
20260503071501 54 224 0.9 1.7 0.00 0.00 0.00 78 1011.1
20260503070113 56 224 0.0 2.6 0.00 0.00 0.00 75 1010.9
20260503060119 56 224 0.9 1.7 0.00 0.00 0.00 78 1010.8
20260503054600 55 224 1.7 2.6 0.00 0.00 0.00 78 1010.7
20260503053052 57 148 2.6 4.3 0.00 0.00 0.00 75 1010.6
20260503051553 58 149 4.3 6.1 0.00 0.00 0.00 72 1010.6
20260503050053 57 202 2.6 6.1 0.00 0.00 0.00 73 1010.5
20260503044550 58 156 4.3 6.1 0.00 0.00 0.00 72 1010.4
20260503043050 59 146 1.7 4.3 0.00 0.00 0.00 68 1010.4
20260503041554 59 151 1.7 3.5 0.00 0.00 0.00 72 1010.2
20260503040050 61 152 1.7 2.6 0.00 0.00 0.00 70 1009.9
20260503034556 62 152 2.6 3.5 0.00 0.00 0.00 69 1009.6
20260503033054 63 153 2.6 3.5 0.00 0.00 0.00 69 1009.4
20260503031545 70 100 0.9 3.5 0.00 0.00 0.00 57 1009.0
20260503030046 70 96 1.7 4.3 0.00 0.00 0.00 58 1008.9
20260503024545 73 56 1.7 5.2 0.00 0.00 0.00 54 1008.8
20260503023044 74 32 3.5 6.1 0.00 0.00 0.00 50 1008.8
20260503021542 76 33 2.6 5.2 0.00 0.00 0.00 48 1008.8
20260503020042 77 65 1.7 3.5 0.00 0.00 0.00 46 1008.8
20260503014543 78 41 1.7 6.1 0.00 0.00 0.00 45 1008.8
20260503013049 78 41 2.6 5.2 0.00 0.00 0.00 44 1008.9
20260503011540 78 78 1.7 4.3 0.00 0.00 0.00 44 1008.9
20260503010047 78 73 2.6 5.2 0.00 0.00 0.00 41 1009.1
20260503004536 78 44 0.9 7.0 0.00 0.00 0.00 42 1009.2
20260503003034 78 64 2.6 7.8 0.00 0.00 0.00 43 1009.2
20260503001533 78 48 3.5 7.8 0.00 0.00 0.00 43 1009.2
20260503000031 78 13 5.2 8.7 0.00 0.00 0.00 40 1009.3
20260502234529 78 15 2.6 7.8 0.00 0.00 0.00 38 1009.5
20260502233027 77 40 4.3 11.3 0.00 0.00 0.00 40 1009.7
20260502231525 77 1 7.0 12.2 0.00 0.00 0.00 40 1009.7
20260502230026 77 12 7.0 11.3 0.00 0.00 0.00 40 1009.8
20260502224522 77 336 7.0 12.2 0.00 0.00 0.00 40 1010.1
20260502223020 77 23 7.8 12.2 0.00 0.00 0.00 39 1010.3
20260502221518 77 4 8.7 13.0 0.00 0.00 0.00 40 1010.4
20260502220016 77 342 7.0 13.0 0.00 0.00 0.00 40 1010.5
20260502214519 76 335 7.0 13.9 0.00 0.00 0.00 42 1010.7
20260502213012 76 7 8.7 13.0 0.00 0.00 0.00 39 1010.9
20260502211522 76 8 9.6 13.0 0.00 0.00 0.00 41 1010.9
20260502210007 76 350 7.0 10.4 0.00 0.00 0.00 42 1011.1
20260502204505 75 262 5.2 9.6 0.00 0.00 0.00 43 1011.2
20260502203005 74 257 5.2 9.6 0.00 0.00 0.00 43 1011.4
20260502201504 74 278 5.2 10.4 0.00 0.00 0.00 43 1011.5